Time,TemperatureF,DewpointF,PressureIn,WindDirection,WindDirectionDegrees,WindSpeedMPH,WindSpeedGustMPH,Humidity,HourlyPrecipIn,Conditions,Clouds,dailyrainin,SoftwareType,DateUTC
2013-08-25 00:05:00,62.0,61.0,30.27,East,87,0.0,1.0,95,0.00,,,0.00,weatherlink.com 1.10,2013-08-25 04:05:00,
2013-08-25 00:20:00,61.5,60.0,30.27,East,87,0.0,0.0,95,0.00,,,0.00,weatherlink.com 1.10,2013-08-25 04:20:00,
2013-08-25 00:35:00,61.7,60.0,30.28,East,87,0.0,0.0,94,0.00,,,0.00,weatherlink.com 1.10,2013-08-25 04:35:00,
2013-08-25 00:51:00,61.4,60.0,30.28,East,87,0.0,0.0,95,0.00,,,0.00,weatherlink.com 1.10,2013-08-25 04:51:00,
2013-08-25 01:06:00,61.4,60.0,30.28,East,87,0.0,0.0,95,0.00,,,0.00,weatherlink.com 1.10,2013-08-25 05:06:00,
2013-08-25 01:21:00,61.2,60.0,30.28,East,87,0.0,0.0,95,0.00,,,0.00,weatherlink.com 1.10,2013-08-25 05:21:00,
2013-08-25 01:36:00,61.0,60.0,30.28,East,87,0.0,0.0,95,0.00,,,0.00,weatherlink.com 1.10,2013-08-25 05:36:00,
2013-08-25 01:51:00,61.2,60.0,30.28,East,87,0.0,1.0,95,0.00,,,0.00,weatherlink.com 1.10,2013-08-25 05:51:00,
2013-08-25 02:06:00,60.8,59.0,30.27,East,87,0.0,0.0,95,0.00,,,0.00,weatherlink.com 1.10,2013-08-25 06:06:00,
2013-08-25 02:21:00,60.6,59.0,30.28,East,87,0.0,1.0,95,0.00,,,0.00,weatherlink.com 1.10,2013-08-25 06:21:00,
2013-08-25 02:36:00,60.7,59.0,30.27,East,87,0.0,0.0,95,0.00,,,0.00,weatherlink.com 1.10,2013-08-25 06:36:00,
2013-08-25 02:51:00,60.7,59.0,30.27,East,87,0.0,0.0,95,0.00,,,0.00,weatherlink.com 1.10,2013-08-25 06:51:00,
2013-08-25 03:06:00,60.5,59.0,30.27,East,87,0.0,1.0,95,0.00,,,0.00,weatherlink.com 1.10,2013-08-25 07:06:00,
2013-08-25 03:21:00,60.8,59.0,30.27,East,87,1.0,2.0,95,0.00,,,0.00,weatherlink.com 1.10,2013-08-25 07:21:00,
2013-08-25 03:36:00,60.9,60.0,30.27,East,87,0.0,2.0,95,0.00,,,0.00,weatherlink.com 1.10,2013-08-25 07:36:00,
2013-08-25 03:51:00,60.6,59.0,30.27,East,87,0.0,2.0,95,0.00,,,0.00,weatherlink.com 1.10,2013-08-25 07:51:00,
2013-08-25 04:06:00,60.5,59.0,30.27,East,86,0.0,2.0,95,0.00,,,0.00,weatherlink.com 1.10,2013-08-25 08:06:00,
2013-08-25 04:21:00,60.4,59.0,30.28,East,86,0.0,2.0,95,0.00,,,0.00,weatherlink.com 1.10,2013-08-25 08:21:00,
2013-08-25 04:36:00,60.3,59.0,30.28,East,86,0.0,1.0,95,0.00,,,0.00,weatherlink.com 1.10,2013-08-25 08:36:00,
2013-08-25 04:51:00,60.3,59.0,30.28,East,86,0.0,1.0,95,0.00,,,0.00,weatherlink.com 1.10,2013-08-25 08:51:00,
2013-08-25 05:06:00,60.4,59.0,30.28,East,86,0.0,2.0,95,0.00,,,0.00,weatherlink.com 1.10,2013-08-25 09:06:00,
2013-08-25 05:21:00,60.2,59.0,30.29,East,86,0.0,2.0,95,0.00,,,0.00,weatherlink.com 1.10,2013-08-25 09:21:00,
2013-08-25 05:36:00,60.2,59.0,30.29,East,86,0.0,1.0,95,0.00,,,0.00,weatherlink.com 1.10,2013-08-25 09:36:00,
2013-08-25 05:51:00,60.1,59.0,30.29,East,86,0.0,1.0,95,0.00,,,0.00,weatherlink.com 1.10,2013-08-25 09:51:00,
2013-08-25 06:06:00,60.0,58.0,30.30,East,86,0.0,1.0,94,0.00,,,0.00,weatherlink.com 1.10,2013-08-25 10:06:00,
2013-08-25 06:21:00,60.1,58.0,30.30,East,86,0.0,0.0,94,0.00,,,0.00,weatherlink.com 1.10,2013-08-25 10:21:00,
2013-08-25 06:36:00,59.8,58.0,30.31,East,86,0.0,0.0,94,0.00,,,0.00,weatherlink.com 1.10,2013-08-25 10:36:00,
2013-08-25 06:51:00,59.3,58.0,30.31,East,86,0.0,0.0,94,0.00,,,0.00,weatherlink.com 1.10,2013-08-25 10:51:00,
2013-08-25 07:06:00,59.2,58.0,30.32,East,86,0.0,1.0,94,0.00,,,0.00,weatherlink.com 1.10,2013-08-25 11:06:00,
2013-08-25 07:21:00,59.1,57.0,30.33,East,89,0.0,2.0,94,0.00,,,0.00,weatherlink.com 1.10,2013-08-25 11:21:00,
2013-08-25 07:36:00,59.3,58.0,30.33,East,89,0.0,1.0,94,0.00,,,0.00,weatherlink.com 1.10,2013-08-25 11:36:00,
2013-08-25 07:51:00,59.9,58.0,30.34,East,89,0.0,1.0,93,0.00,,,0.00,weatherlink.com 1.10,2013-08-25 11:51:00,
2013-08-25 08:06:00,60.7,59.0,30.34,East,89,1.0,2.0,93,0.00,,,0.00,weatherlink.com 1.10,2013-08-25 12:06:00,
2013-08-25 08:21:00,61.7,60.0,30.35,NNE,18,0.0,3.0,94,0.00,,,0.00,weatherlink.com 1.10,2013-08-25 12:21:00,
2013-08-25 08:36:00,63.4,62.0,30.36,NE,46,1.0,4.0,94,0.00,,,0.00,weatherlink.com 1.10,2013-08-25 12:36:00,
2013-08-25 08:51:00,64.6,63.0,30.36,NNE,26,3.0,4.0,93,0.00,,,0.00,weatherlink.com 1.10,2013-08-25 12:51:00,
2013-08-25 09:06:00,65.8,63.0,30.36,North,5,4.0,5.0,90,0.00,,,0.00,weatherlink.com 1.10,2013-08-25 13:06:00,
2013-08-25 09:21:00,66.8,64.0,30.37,East,87,1.0,7.0,89,0.00,,,0.00,weatherlink.com 1.10,2013-08-25 13:21:00,
2013-08-25 09:36:00,67.7,64.0,30.37,NE,49,1.0,8.0,88,0.00,,,0.00,weatherlink.com 1.10,2013-08-25 13:36:00,
2013-08-25 09:52:00,68.3,64.0,30.37,SE,124,2.0,4.0,85,0.00,,,0.00,weatherlink.com 1.10,2013-08-25 13:52:00,
2013-08-25 10:07:00,69.1,65.0,30.36,North,355,4.0,8.0,85,0.00,,,0.00,weatherlink.com 1.10,2013-08-25 14:07:00,
2013-08-25 10:22:00,69.9,65.0,30.37,WSW,250,0.0,5.0,85,0.00,,,0.00,weatherlink.com 1.10,2013-08-25 14:22:00,
2013-08-25 10:37:00,71.0,66.0,30.37,East,90,2.0,6.0,83,0.00,,,0.00,weatherlink.com 1.10,2013-08-25 14:37:00,
2013-08-25 10:52:00,72.2,66.0,30.36,NNE,22,2.0,7.0,82,0.00,,,0.00,weatherlink.com 1.10,2013-08-25 14:52:00,
2013-08-25 11:07:00,72.9,66.0,30.36,ENE,78,1.0,6.0,79,0.00,,,0.00,weatherlink.com 1.10,2013-08-25 15:07:00,
2013-08-25 11:22:00,73.7,65.0,30.36,NE,34,2.0,10.0,75,0.00,,,0.00,weatherlink.com 1.10,2013-08-25 15:22:00,
2013-08-25 11:37:00,73.6,67.0,30.35,NW,317,1.0,6.0,81,0.00,,,0.00,weatherlink.com 1.10,2013-08-25 15:37:00,
2013-08-25 11:52:00,73.8,65.0,30.35,NE,53,1.0,6.0,75,0.00,,,0.00,weatherlink.com 1.10,2013-08-25 15:52:00,
2013-08-25 12:07:00,74.7,66.0,30.35,South,175,3.0,8.0,73,0.00,,,0.00,weatherlink.com 1.10,2013-08-25 16:07:00,
2013-08-25 12:22:00,73.4,66.0,30.34,NE,52,1.0,7.0,78,0.00,,,0.00,weatherlink.com 1.10,2013-08-25 16:22:00,
2013-08-25 12:37:00,75.4,65.0,30.34,NNE,20,1.0,6.0,70,0.00,,,0.00,weatherlink.com 1.10,2013-08-25 16:37:00,
2013-08-25 12:52:00,75.6,69.0,30.33,NNE,15,7.0,8.0,79,0.00,,,0.00,weatherlink.com 1.10,2013-08-25 16:52:00,
2013-08-25 13:07:00,76.4,62.0,30.32,NE,35,2.0,7.0,62,0.00,,,0.00,weatherlink.com 1.10,2013-08-25 17:07:00,
2013-08-25 13:22:00,78.3,64.0,30.32,NE,50,2.0,9.0,62,0.00,,,0.00,weatherlink.com 1.10,2013-08-25 17:22:00,
2013-08-25 13:37:00,78.0,66.0,30.32,ENE,65,5.0,6.0,66,0.00,,,0.00,weatherlink.com 1.10,2013-08-25 17:37:00,
2013-08-25 13:52:00,76.9,65.0,30.31,SSW,209,1.0,5.0,67,0.00,,,0.00,weatherlink.com 1.10,2013-08-25 17:52:00,
2013-08-25 14:07:00,78.4,64.0,30.31,East,98,2.0,3.0,62,0.00,,,0.00,weatherlink.com 1.10,2013-08-25 18:07:00,
2013-08-25 14:22:00,75.5,62.0,30.31,ENE,69,1.0,8.0,64,0.00,,,0.00,weatherlink.com 1.10,2013-08-25 18:22:00,
2013-08-25 14:37:00,79.7,64.0,30.30,North,355,4.0,13.0,58,0.00,,,0.00,weatherlink.com 1.10,2013-08-25 18:37:00,
2013-08-25 14:52:00,78.2,62.0,30.29,North,10,2.0,7.0,58,0.00,,,0.00,weatherlink.com 1.10,2013-08-25 18:52:00,
2013-08-25 15:07:00,78.9,59.0,30.29,NE,42,2.0,8.0,51,0.00,,,0.00,weatherlink.com 1.10,2013-08-25 19:07:00,
2013-08-25 15:22:00,79.1,62.0,30.29,North,10,4.0,8.0,57,0.00,,,0.00,weatherlink.com 1.10,2013-08-25 19:22:00,
2013-08-25 15:37:00,79.9,63.0,30.28,NE,40,2.0,6.0,56,0.00,,,0.00,weatherlink.com 1.10,2013-08-25 19:37:00,
2013-08-25 15:52:00,76.5,63.0,30.27,NE,55,1.0,5.0,64,0.00,,,0.00,weatherlink.com 1.10,2013-08-25 19:52:00,
2013-08-25 16:07:00,79.0,65.0,30.27,NE,36,3.0,6.0,62,0.00,,,0.00,weatherlink.com 1.10,2013-08-25 20:07:00,
2013-08-25 16:22:00,79.0,63.0,30.27,ENE,69,4.0,10.0,58,0.00,,,0.00,weatherlink.com 1.10,2013-08-25 20:22:00,
2013-08-25 16:37:00,79.7,63.0,30.26,NNE,26,3.0,7.0,56,0.00,,,0.00,weatherlink.com 1.10,2013-08-25 20:37:00,
2013-08-25 16:52:00,78.6,63.0,30.26,ENE,63,1.0,7.0,60,0.00,,,0.00,weatherlink.com 1.10,2013-08-25 20:52:00,
2013-08-25 17:07:00,77.3,65.0,30.26,NNE,18,3.0,3.0,65,0.00,,,0.00,weatherlink.com 1.10,2013-08-25 21:07:00,
2013-08-25 17:22:00,77.8,64.0,30.26,NE,37,1.0,6.0,63,0.00,,,0.00,weatherlink.com 1.10,2013-08-25 21:22:00,
2013-08-25 17:37:00,77.8,62.0,30.26,East,84,2.0,5.0,59,0.00,,,0.00,weatherlink.com 1.10,2013-08-25 21:37:00,
2013-08-25 17:52:00,76.5,65.0,30.27,ESE,121,2.0,5.0,67,0.00,,,0.00,weatherlink.com 1.10,2013-08-25 21:52:00,
2013-08-25 18:07:00,75.8,65.0,30.27,NE,45,1.0,3.0,69,0.00,,,0.00,weatherlink.com 1.10,2013-08-25 22:07:00,
2013-08-25 18:22:00,76.2,64.0,30.27,NE,53,0.0,4.0,66,0.00,,,0.00,weatherlink.com 1.10,2013-08-25 22:22:00,
2013-08-25 18:37:00,75.7,64.0,30.26,NE,37,1.0,3.0,67,0.00,,,0.00,weatherlink.com 1.10,2013-08-25 22:37:00,
2013-08-25 18:52:00,75.1,63.0,30.26,NNE,17,0.0,4.0,67,0.00,,,0.00,weatherlink.com 1.10,2013-08-25 22:52:00,
2013-08-25 19:07:00,73.8,64.0,30.26,NNE,17,1.0,1.0,71,0.00,,,0.00,weatherlink.com 1.10,2013-08-25 23:07:00,
2013-08-25 19:22:00,72.2,65.0,30.26,NNE,17,1.0,1.0,77,0.00,,,0.00,weatherlink.com 1.10,2013-08-25 23:22:00,
2013-08-25 19:37:00,70.6,65.0,30.26,NNE,17,1.0,1.0,81,0.00,,,0.00,weatherlink.com 1.10,2013-08-25 23:37:00,
2013-08-25 19:52:00,69.1,64.0,30.26,NNE,17,0.0,2.0,83,0.00,,,0.00,weatherlink.com 1.10,2013-08-25 23:52:00,
2013-08-25 20:08:00,67.9,64.0,30.26,NNE,17,1.0,2.0,86,0.00,,,0.00,weatherlink.com 1.10,2013-08-26 00:08:00,
2013-08-25 20:23:00,67.0,63.0,30.27,NNE,17,0.0,1.0,88,0.00,,,0.00,weatherlink.com 1.10,2013-08-26 00:23:00,
2013-08-25 20:38:00,66.5,64.0,30.27,NNE,17,1.0,1.0,91,0.00,,,0.00,weatherlink.com 1.10,2013-08-26 00:38:00,
2013-08-25 20:53:00,65.6,63.0,30.27,NNE,17,0.0,0.0,92,0.00,,,0.00,weatherlink.com 1.10,2013-08-26 00:53:00,
2013-08-25 21:08:00,65.0,63.0,30.27,NNE,17,0.0,0.0,92,0.00,,,0.00,weatherlink.com 1.10,2013-08-26 01:08:00,
2013-08-25 21:23:00,64.4,62.0,30.28,NNE,17,0.0,1.0,93,0.00,,,0.00,weatherlink.com 1.10,2013-08-26 01:23:00,
2013-08-25 21:38:00,64.3,62.0,30.28,NNE,17,0.0,1.0,93,0.00,,,0.00,weatherlink.com 1.10,2013-08-26 01:38:00,
2013-08-25 21:53:00,63.9,62.0,30.29,NNE,17,0.0,1.0,94,0.00,,,0.00,weatherlink.com 1.10,2013-08-26 01:53:00,
2013-08-25 22:08:00,64.0,62.0,30.29,NNE,17,0.0,1.0,94,0.00,,,0.00,weatherlink.com 1.10,2013-08-26 02:08:00,
2013-08-25 22:23:00,63.6,62.0,30.29,NNE,17,0.0,1.0,94,0.00,,,0.00,weatherlink.com 1.10,2013-08-26 02:23:00,
2013-08-25 22:38:00,63.4,62.0,30.30,NNE,17,0.0,1.0,94,0.00,,,0.00,weatherlink.com 1.10,2013-08-26 02:38:00,
2013-08-25 22:53:00,63.1,61.0,30.30,NNE,17,0.0,1.0,94,0.00,,,0.00,weatherlink.com 1.10,2013-08-26 02:53:00,
2013-08-25 23:08:00,62.9,61.0,30.30,NNE,17,0.0,1.0,94,0.00,,,0.00,weatherlink.com 1.10,2013-08-26 03:08:00,
2013-08-25 23:23:00,62.7,61.0,30.30,NNE,17,0.0,1.0,94,0.00,,,0.00,weatherlink.com 1.10,2013-08-26 03:23:00,
2013-08-25 23:38:00,62.6,61.0,30.30,NNE,17,1.0,1.0,94,0.00,,,0.00,weatherlink.com 1.10,2013-08-26 03:38:00,
2013-08-25 23:53:00,62.5,61.0,30.30,NNE,17,0.0,1.0,94,0.00,,,0.00,weatherlink.com 1.10,2013-08-26 03:53:00,